Location: Chochol
(49.7771°N, 14.9780°E)
Time: 23:47:24
(UTC+00:00)

Iridium 2 - Pass Details

Date: 09 April 2020
Orbit: 502 x 518 km, 85.5° (Epoch: 29 May)

Event Time Altitude Azimuth Distance (km) Brightness Sun altitude
Exits shadow 19:33:30 27° 170° (S) 1,028 4.8 -16.7°
Maximum altitude 19:35:29 69° 92° (E) 559 3.6 -17.0°
Drops below altitude 10° 19:39:19 10° 10° (N) 1,761 6.7 -17.5°
Sets 19:41:28 0° 8° (N) 2,655 7.7 -17.8°
